This demonstration page uses our WeatherBlox Daily Observations layout. Learn more.

Left ArrowRight Arrow

Hourly Observations for August 28, 2015

Temp ( °F °C ) Dew Point ( °F °C ) Humidity (%) Winds ( mph kmh ) Pressure ( in mb ) Visibility ( mi km ) Precip ( " mm )
12:53 am 00:53 Clear 83 28.3 52 11.1 34 34 SSE 14 22 29.86 1011 10 16 0.00 0.00
1:53 am 01:53 Clear 81 27.2 53 11.7 38 38 SSE 9 15 29.85 1011 10 16 0.00 0.00
2:53 am 02:53 Clear 76 24.4 53 11.7 45 45 SE 7 11 29.85 1011 10 16 0.00 0.00
3:53 am 03:53 Clear 75 23.9 54 12.2 48 48 SE 9 15 29.83 1010 10 16 0.00 0.00
4:53 am 04:53 Clear 74 23.3 55 12.8 52 52 SE 9 15 29.84 1011 10 16 0.00 0.00
5:53 am 05:53 Clear 74 23.3 56 13.3 54 54 SE 12 19 29.84 1011 10 16 0.00 0.00
6:53 am 06:53 Clear 73 22.8 56 13.3 55 55 SE 12 19 29.83 1010 10 16 0.00 0.00
7:53 am 07:53 Sunny 74 23.3 56 13.3 54 54 SE 10 17 29.85 1011 10 16 0.00 0.00
8:53 am 08:53 Sunny 76 24.4 57 13.9 52 52 SE 10 17 29.87 1012 10 16 0.00 0.00
9:53 am 09:53 Mostly Sunny 81 27.2 56 13.3 42 42 SSE 9 15 29.88 1012 10 16 0.00 0.00
10:53 am 10:53 Sunny 89 31.7 56 13.3 33 33 SSE 9 15 29.86 1011 10 16 0.00 0.00
11:53 am 11:53 Sunny 93 33.9 53 11.7 26 26 S 7 11 29.86 1011 10 16 0.00 0.00
12:53 pm 12:53 Sunny 95 35 52 11.1 23 23 S 8 13 29.84 1011 10 16 0.00 0.00
1:53 pm 13:53 Sunny 98 36.7 52 11.1 21 21 VRB 5 7 29.82 1010 10 16 0.00 0.00
2:53 pm 14:53 Sunny 99 37.2 51 10.6 20 20 S 6 9 29.79 1009 10 16 0.00 0.00
3:53 pm 15:53 Sunny 100 37.8 51 10.6 19 19 Calm 29.76 1008 10 16 0.00 0.00
4:53 pm 16:53 Sunny 103 39.4 49 9.4 16 16 S 12 19 29.73 1007 10 16 0.00 0.00
5:53 pm 17:53 Sunny 101 38.3 48 8.9 17 17 VRB 6 9 29.72 1006 10 16 0.00 0.00
6:21 pm 18:21 Sunny with Nearby Thunderstorms 99 37.2 48 8.9 18 18 VRB 3 6 29.59 1002 10 16 0.00 0.00
6:34 pm 18:34 Mostly Cloudy with Thunderstorms 99 37 48 9 18 18 WNW 13 20 29.62 1003 10 16 0.00 0.00
6:42 pm 18:42 Mostly Cloudy with Thunderstorms 88 31 57 14 35 35 NNW 29 46 29.71 1006 10 16 0.00 0.00
6:53 pm 18:53 Cloudy with Thunderstorms 77 25 65 18.3 66 66 NW 31 50 29.85 1011 3 5 0.05 1.27
6:56 pm 18:56 Cloudy with Strong Thunderstorms 74 23.3 66 18.9 76 76 NNW 33 54 29.85 1011 2 3 0.02 0.51
7:03 pm 19:03 Windy with Storms Likely 73 23 66 19 78 78 N 25 41 29.85 1011 3 5 0.00 0.00
7:43 pm 19:43 Cloudy with Nearby Thunderstorms 74 23.3 66 18.9 76 76 N 10 17 29.88 1012 9 14 0.20 5.08
7:53 pm 19:53 Cloudy with Rain 72 22.2 68 20 87 87 NNE 16 26 29.91 1013 6 10 0.24 6.10
8:05 pm 20:05 Mostly Cloudy with Nearby Thunderstorms 72 22.2 67 19.4 84 84 NNE 17 28 29.91 1013 10 16 0.00 0.03
8:26 pm 20:26 Mostly Cloudy with Light Rain 73 23 66 19 78 78 NE 13 20 29.91 1013 10 16 0.00 0.00
8:42 pm 20:42 Cloudy with Nearby Thunderstorms 73 23 66 19 78 78 NE 12 19 29.91 1013 8 13 0.00 0.00
8:53 pm 20:53 Cloudy with Light Rain 72 22.2 67 19.4 84 84 NE 12 19 29.95 1014 9 14 0.07 1.78
9:53 pm 21:53 Mostly Cloudy with Light Rain 72 22.2 66 18.9 82 82 NE 12 19 29.92 1013 10 16 0.06 1.52
10:53 pm 22:53 Mostly Cloudy 74 23.3 65 18.3 74 74 ENE 9 15 29.88 1012 10 16 0.00 0.03
11:53 pm 23:53 Cloudy 75 23.9 63 17.2 66 66 SSE 15 24 29.88 1012 10 16 0.01 0.25

Powered by AerisWeather